| time (UTC) | temp C | wind direction | speed KPH | gust KPH | rain 1hr cm | rain 24hr cm | rain mn cm | humidity % | barometer mb |
| 20260506044526 | 11 | 288 | 3.2 | 8.0 | 0.00 | 0.30 | 0.30 | 52 | 1016.4 |
| 20260506043027 | 11 | 274 | 1.6 | 11.3 | 0.00 | 0.30 | 0.30 | 51 | 1016.3 |
| 20260506041520 | 11 | 271 | 1.6 | 9.7 | 0.00 | 0.30 | 0.30 | 52 | 1016.1 |
| 20260506040026 | 11 | 319 | 1.6 | 9.7 | 0.00 | 0.30 | 0.30 | 50 | 1015.9 |
| 20260506034530 | 11 | 250 | 3.2 | 12.9 | 0.00 | 0.30 | 0.30 | 49 | 1015.7 |
| 20260506033021 | 12 | 281 | 0.0 | 9.7 | 0.00 | 0.30 | 0.30 | 47 | 1015.3 |
| 20260506031518 | 12 | 275 | 3.2 | 14.5 | 0.00 | 0.30 | 0.30 | 46 | 1015.1 |
| 20260506031510 | 12 | 302 | 3.2 | 14.5 | 0.00 | 0.30 | 0.30 | 46 | 1015.1 |
| 20260506030033 | 12 | 235 | 4.8 | 14.5 | 0.00 | 0.30 | 0.30 | 45 | 1014.9 |
| 20260506024510 | 13 | 319 | 1.6 | 20.9 | 0.00 | 0.30 | 0.30 | 43 | 1014.4 |
| 20260506023012 | 13 | 281 | 1.6 | 12.9 | 0.00 | 0.30 | 0.30 | 43 | 1014.3 |
| 20260506021524 | 13 | 265 | 6.4 | 17.7 | 0.00 | 0.30 | 0.30 | 41 | 1014.2 |
| 20260506020004 | 14 | 272 | 4.8 | 17.7 | 0.00 | 0.30 | 0.30 | 39 | 1014.0 |
| 20260506014511 | 15 | 268 | 8.0 | 16.1 | 0.00 | 0.30 | 0.30 | 38 | 1013.8 |
| 20260506013035 | 16 | 274 | 11.3 | 24.1 | 0.00 | 0.30 | 0.30 | 36 | 1013.6 |
| 20260506011510 | 16 | 239 | 9.7 | 32.2 | 0.00 | 0.30 | 0.30 | 33 | 1013.5 |
| 20260506010020 | 16 | 250 | 14.5 | 29.0 | 0.00 | 0.30 | 0.30 | 34 | 1013.5 |
| 20260506004505 | 15 | 259 | 17.7 | 33.8 | 0.00 | 0.30 | 0.30 | 33 | 1013.5 |
| 20260506003008 | 16 | 224 | 17.7 | 37.0 | 0.00 | 0.30 | 0.30 | 31 | 1013.5 |
| 20260506001521 | 17 | 271 | 11.3 | 35.4 | 0.00 | 0.30 | 0.30 | 31 | 1013.5 |
| 20260506000005 | 17 | 249 | 16.1 | 35.4 | 0.00 | 0.30 | 0.30 | 30 | 1013.4 |
| 20260505234512 | 16 | 262 | 16.1 | 35.4 | 0.00 | 0.30 | 0.30 | 32 | 1013.4 |
| 20260505233022 | 16 | 238 | 17.7 | 29.0 | 0.00 | 0.30 | 0.30 | 36 | 1013.3 |
| 20260505231508 | 16 | 259 | 16.1 | 30.6 | 0.00 | 0.30 | 0.30 | 36 | 1013.2 |
| 20260505230034 | 16 | 247 | 17.7 | 27.4 | 0.00 | 0.30 | 0.30 | 39 | 1013.6 |
| 20260505224524 | 17 | 243 | 14.5 | 25.7 | 0.00 | 0.30 | 0.30 | 38 | 1013.6 |
| 20260505223010 | 16 | 238 | 16.1 | 30.6 | 0.00 | 0.30 | 0.30 | 42 | 1013.9 |
| 20260505221520 | 16 | 163 | 8.0 | 22.5 | 0.00 | 0.30 | 0.30 | 45 | 1013.8 |
| 20260505220006 | 15 | 268 | 11.3 | 24.1 | 0.00 | 0.30 | 0.30 | 47 | 1014.3 |
| 20260505214519 | 16 | 186 | 12.9 | 29.0 | 0.00 | 0.30 | 0.30 | 49 | 1014.5 |
| 20260505213028 | 16 | 271 | 11.3 | 27.4 | 0.00 | 0.30 | 0.30 | 47 | 1014.7 |
| 20260505211506 | 16 | 182 | 6.4 | 17.7 | 0.00 | 0.30 | 0.30 | 51 | 1014.9 |
| 20260505210016 | 15 | 264 | 4.8 | 17.7 | 0.00 | 0.30 | 0.30 | 53 | 1015.2 |
| 20260505204523 | 15 | 265 | 4.8 | 14.5 | 0.00 | 0.30 | 0.30 | 50 | 1015.0 |
| 20260505203010 | 16 | 223 | 8.0 | 24.1 | 0.00 | 0.30 | 0.30 | 51 | 1015.4 |
| 20260505201521 | 16 | 181 | 14.5 | 29.0 | 0.00 | 0.30 | 0.30 | 46 | 1015.5 |
| 20260505200033 | 16 | 278 | 6.4 | 24.1 | 0.00 | 0.30 | 0.30 | 50 | 1015.8 |
| 20260505194514 | 15 | 284 | 11.3 | 24.1 | 0.00 | 0.30 | 0.30 | 57 | 1016.0 |
| 20260505193023 | 14 | 314 | 8.0 | 24.1 | 0.00 | 0.30 | 0.30 | 58 | 1016.3 |
| 20260505191508 | 14 | 273 | 14.5 | 25.7 | 0.00 | 0.30 | 0.30 | 57 | 1016.4 |
| 20260505190020 | 13 | 259 | 9.7 | 22.5 | 0.00 | 0.30 | 0.30 | 61 | 1016.6 |
| 20260505184526 | 13 | 292 | 6.4 | 17.7 | 0.00 | 0.30 | 0.30 | 65 | 1016.9 |
| 20260505183011 | 12 | 261 | 8.0 | 22.5 | 0.00 | 0.30 | 0.30 | 67 | 1017.0 |
| 20260505181521 | 12 | 278 | 11.3 | 22.5 | 0.00 | 0.30 | 0.30 | 68 | 1017.0 |
| 20260505180027 | 12 | 249 | 6.4 | 14.5 | 0.00 | 0.30 | 0.30 | 73 | 1017.0 |
| 20260505174516 | 11 | 271 | 4.8 | 22.5 | 0.00 | 0.30 | 0.30 | 73 | 1017.0 |
| 20260505173038 | 11 | 268 | 8.0 | 19.3 | 0.00 | 0.30 | 0.30 | 75 | 1017.0 |
| 20260505171509 | 11 | 332 | 8.0 | 19.3 | 0.00 | 0.30 | 0.30 | 74 | 1017.0 |
| 20260505170025 | 11 | 230 | 4.8 | 14.5 | 0.00 | 0.30 | 0.30 | 76 | 1017.0 |
| 20260505164503 | 10 | 283 | 4.8 | 14.5 | 0.00 | 0.30 | 0.30 | 79 | 1016.9 |
| 20260505163014 | 10 | 287 | 6.4 | 11.3 | 0.00 | 0.30 | 0.30 | 79 | 1016.8 |
| 20260505161522 | 10 | 259 | 1.6 | 8.0 | 0.05 | 0.30 | 0.30 | 83 | 1016.8 |
| 20260505153022 | 8 | 306 | 1.6 | 6.4 | 0.10 | 0.30 | 0.30 | 88 | 1016.5 |
| 20260505151507 | 8 | 30 | 1.6 | 3.2 | 0.05 | 0.25 | 0.25 | 86 | 1016.5 |
| 20260505124528 | 6 | 22 | 3.2 | 12.9 | 0.20 | 0.20 | 0.20 | 87 | 1015.9 |
| 20260505123017 | 6 | 258 | 0.0 | 11.3 | 0.18 | 0.18 | 0.18 | 84 | 1017.3 |
| 20260505121522 | 7 | 335 | 3.2 | 12.9 | 0.15 | 0.15 | 0.15 | 84 | 1017.5 |
| 20260505120026 | 7 | 269 | 8.0 | 19.3 | 0.13 | 0.13 | 0.13 | 81 | 1017.1 |
| 20260505114530 | 8 | 272 | 9.7 | 32.2 | 0.00 | 0.00 | 0.00 | 75 | 1017.2 |
| 20260505113024 | 10 | 291 | 8.0 | 29.0 | 0.00 | 0.00 | 0.00 | 68 | 1017.2 |
| 20260505111533 | 10 | 276 | 6.4 | 19.3 | 0.00 | 0.00 | 0.00 | 73 | 1016.9 |
| 20260505101520 | 10 | 275 | 1.6 | 6.4 | 0.00 | 0.00 | 0.00 | 73 | 1016.8 |
| 20260505100039 | 10 | 283 | 3.2 | 11.3 | 0.00 | 0.00 | 0.00 | 73 | 1016.9 |
| 20260505094517 | 10 | 276 | 3.2 | 12.9 | 0.00 | 0.00 | 0.00 | 73 | 1017.0 |
| 20260505093025 | 10 | 298 | 3.2 | 8.0 | 0.00 | 0.00 | 0.00 | 73 | 1016.6 |
| 20260505091538 | 9 | 357 | 1.6 | 6.4 | 0.00 | 0.00 | 0.00 | 74 | 1017.1 |
| 20260505090031 | 8 | 33 | 1.6 | 3.2 | 0.00 | 0.00 | 0.00 | 77 | 1016.9 |
| 20260505084533 | 8 | 21 | 1.6 | 4.8 | 0.00 | 0.00 | 0.00 | 80 | 1016.9 |
| 20260505083039 | 7 | 23 | 0.0 | 1.6 | 0.00 | 0.00 | 0.00 | 82 | 1017.2 |
| 20260505081529 | 7 | 234 | 0.0 | 0.0 | 0.00 | 0.00 | 0.00 | 78 | 1017.6 |
| 20260505080007 | 8 | 234 | 0.0 | 0.0 | 0.00 | 0.00 | 0.00 | 75 | 1017.7 |
| 20260505074514 | 9 | 235 | 0.0 | 3.2 | 0.00 | 0.00 | 0.00 | 73 | 1018.0 |
| 20260505071522 | 10 | 335 | 0.0 | 6.4 | 0.00 | 0.00 | 0.00 | 70 | 1017.8 |
| 20260505070026 | 9 | 115 | 0.0 | 1.6 | 0.00 | 0.00 | 0.00 | 71 | 1017.7 |
| 20260505064504 | 10 | 228 | 0.0 | 1.6 | 0.00 | 0.00 | 0.00 | 68 | 1017.9 |
| 20260505063015 | 10 | 333 | 3.2 | 9.7 | 0.00 | 0.00 | 0.00 | 67 | 1017.7 |
| 20260505061530 | 10 | 320 | 3.2 | 16.1 | 0.00 | 0.00 | 0.00 | 66 | 1017.3 |